This is the latest recevied weather packets stored in our database for station/object F4FSZ-11. If no packets are shown the sender has not sent any weather packets the latest 10 day(s).
| Time | Temp. | Humidity | Pressure | Rain* | Wind** | Luminosity | Snow |
|---|---|---|---|---|---|---|---|
| 1777596503 | 4.44° C | 76% | 1016.1 hPa | - | - | - | - |
| 1777595603 | 5° C | 74% | 1016.1 hPa | - | - | - | - |
| 1777594703 | 5° C | 75% | 1015.9 hPa | - | - | - | - |
| 1777593803 | 5° C | 72% | 1015.9 hPa | - | - | - | - |
| 1777592903 | 5.56° C | 71% | 1015.9 hPa | - | - | - | - |
| 1777592003 | 6.11° C | 72% | 1015.8 hPa | - | - | - | - |
| 1777591103 | 6.11° C | 73% | 1015.8 hPa | - | - | - | - |
| 1777590203 | 6.11° C | 73% | 1015.9 hPa | - | - | - | - |
| 1777589303 | 6.67° C | 70% | 1015.8 hPa | - | - | - | - |
| 1777588403 | 6.67° C | 70% | 1015.7 hPa | - | - | - | - |
| 1777587503 | 6.67° C | 70% | 1015.7 hPa | - | - | - | - |
| 1777586603 | 7.22° C | 68% | 1015.7 hPa | - | - | - | - |
| 1777585703 | 7.78° C | 67% | 1015.8 hPa | - | - | - | - |
| 1777584803 | 7.78° C | 67% | 1015.8 hPa | - | - | - | - |
| 1777583903 | 8.33° C | 66% | 1015.6 hPa | - | - | - | - |
| 1777583003 | 8.89° C | 62% | 1015.5 hPa | - | - | - | - |
| 1777582103 | 8.89° C | 62% | 1015.4 hPa | - | - | - | - |
| 1777581202 | 9.44° C | 63% | 1015.4 hPa | - | - | - | - |
| 1777580302 | 10° C | 61% | 1015.2 hPa | - | - | - | - |
| 1777579402 | 10.56° C | 57% | 1015.1 hPa | - | - | - | - |
| 1777578502 | 11.67° C | 53% | 1014.9 hPa | - | - | - | - |
| 1777577602 | 12.22° C | 50% | 1014.7 hPa | - | - | - | - |
| 1777576702 | 13.33° C | 48% | 1014.5 hPa | - | - | - | - |
| 1777575802 | 13.89° C | 45% | 1014.4 hPa | - | - | - | - |
| 1777574902 | 15.56° C | 44% | 1014.2 hPa | - | - | - | - |
* Rain since midnight (hover to see other rain measurements)
** Current wind speed in m/s (hover to see current wind gust speed)